StationID,Date,MaxTemp,MinTemp,Precipitation,Snowfall,SnowDepth
"USS0050N05S","2006-06-30",60.80,46.40,,,
"USS0050N05S","2006-07-01",69.80,42.80,,,
"USS0050N05S","2006-07-02",69.80,44.60,,,
"USS0050N05S","2006-07-03",68.00,46.40,,,
"USS0050N05S","2006-07-04",69.80,44.60,,,
"USS0050N05S","2006-07-05",68.00,48.20,,,
"USS0050N05S","2006-07-06",55.40,48.20,,,
"USS0050N05S","2006-07-07",66.20,46.40,,,
"USS0050N05S","2006-07-08",77.00,42.80,584.00,,
"USS0050N05S","2006-07-09",71.60,50.00,0.00,,
"USS0050N05S","2006-07-10",71.60,48.20,25.00,,
"USS0050N05S","2006-07-11",73.40,44.60,51.00,,
"USS0050N05S","2006-07-12",64.40,48.20,25.00,,
"USS0050N05S","2006-07-13",51.80,46.40,25.00,,
"USS0050N05S","2006-07-14",53.60,46.40,0.00,,
"USS0050N05S","2006-07-15",53.60,46.40,0.00,,
"USS0050N05S","2006-07-16",59.00,44.60,0.00,,
"USS0050N05S","2006-07-17",62.60,44.60,0.00,,
"USS0050N05S","2006-07-18",66.20,44.60,0.00,,
"USS0050N05S","2006-07-19",75.20,39.20,0.00,,
"USS0050N05S","2006-07-20",66.20,48.20,25.00,,
"USS0050N05S","2006-07-21",68.00,46.40,0.00,,
"USS0050N05S","2006-07-22",73.40,48.20,0.00,,
"USS0050N05S","2006-07-23",60.80,50.00,0.00,,
"USS0050N05S","2006-07-24",59.00,48.20,0.00,,
"USS0050N05S","2006-07-25",62.60,46.40,0.00,,
"USS0050N05S","2006-07-26",71.60,46.40,0.00,,
"USS0050N05S","2006-07-27",75.20,42.80,0.00,,
"USS0050N05S","2006-07-28",55.40,46.40,0.00,,
"USS0050N05S","2006-07-29",53.60,44.60,0.00,,
"USS0050N05S","2006-07-30",64.40,44.60,0.00,,
"USS0050N05S","2006-07-31",55.40,41.00,0.00,,
"USS0050N05S","2006-08-01",57.20,44.60,0.00,,
"USS0050N05S","2006-08-02",62.60,44.60,0.00,,
"USS0050N05S","2006-08-03",57.20,44.60,0.00,,
"USS0050N05S","2006-08-04",66.20,44.60,0.00,,
"USS0050N05S","2006-08-05",69.80,41.00,0.00,,
"USS0050N05S","2006-08-06",68.00,44.60,0.00,,
"USS0050N05S","2006-08-07",69.80,42.80,0.00,,
"USS0050N05S","2006-08-08",55.40,44.60,0.00,,
"USS0050N05S","2006-08-09",51.80,46.40,25.00,,
"USS0050N05S","2006-08-10",55.40,46.40,0.00,,
"USS0050N05S","2006-08-11",57.20,46.40,0.00,,
"USS0050N05S","2006-08-12",53.60,46.40,0.00,,
"USS0050N05S","2006-08-13",50.00,44.60,25.00,,
"USS0050N05S","2006-08-14",51.80,42.80,0.00,,
"USS0050N05S","2006-08-15",59.00,44.60,25.00,,
"USS0050N05S","2006-08-16",59.00,46.40,0.00,,
"USS0050N05S","2006-08-17",50.00,41.00,76.00,,
"USS0050N05S","2006-08-18",44.60,41.00,102.00,,
"USS0050N05S","2006-08-19",44.60,37.40,2565.00,,
"USS0050N05S","2006-08-20",53.60,41.00,305.00,,
"USS0050N05S","2006-08-21",44.60,41.00,356.00,,
"USS0050N05S","2006-08-22",53.60,39.20,0.00,,
"USS0050N05S","2006-08-23",53.60,35.60,0.00,,
"USS0050N05S","2006-08-24",51.80,42.80,0.00,,
"USS0050N05S","2006-08-25",60.80,44.60,0.00,,
"USS0050N05S","2006-08-26",62.60,41.00,0.00,,
"USS0050N05S","2006-08-27",62.60,37.40,0.00,,
"USS0050N05S","2006-08-28",62.60,37.40,0.00,,
"USS0050N05S","2006-08-29",59.00,41.00,0.00,,
"USS0050N05S","2006-08-30",57.20,42.80,0.00,,
"USS0050N05S","2006-08-31",62.60,41.00,0.00,,
"USS0050N05S","2006-09-01",59.00,37.40,76.00,,
"USS0050N05S","2006-09-02",64.40,33.80,0.00,,
"USS0050N05S","2006-09-03",62.60,35.60,0.00,,
"USS0050N05S","2006-09-04",55.40,37.40,51.00,,
"USS0050N05S","2006-09-05",60.80,32.00,0.00,,
"USS0050N05S","2006-09-06",55.40,39.20,0.00,,
"USS0050N05S","2006-09-07",50.00,37.40,25.00,,
"USS0050N05S","2006-09-08",60.80,37.40,0.00,,
"USS0050N05S","2006-09-09",62.60,39.20,0.00,,
"USS0050N05S","2006-09-10",57.20,37.40,0.00,,
"USS0050N05S","2006-09-11",62.60,39.20,0.00,,
"USS0050N05S","2006-09-12",62.60,33.80,0.00,,
"USS0050N05S","2006-09-13",55.40,39.20,0.00,,
"USS0050N05S","2006-09-14",53.60,46.40,76.00,,
"USS0050N05S","2006-09-15",50.00,41.00,25.00,,
"USS0050N05S","2006-09-16",53.60,35.60,0.00,,
"USS0050N05S","2006-09-17",57.20,32.00,0.00,,
"USS0050N05S","2006-09-18",66.20,37.40,0.00,,
"USS0050N05S","2006-09-19",53.60,39.20,0.00,,
"USS0050N05S","2006-09-20",53.60,42.80,76.00,,
"USS0050N05S","2006-09-21",48.20,42.80,178.00,,
"USS0050N05S","2006-09-22",46.40,41.00,483.00,,
"USS0050N05S","2006-09-23",55.40,33.80,51.00,,
"USS0050N05S","2006-09-24",55.40,32.00,0.00,,
"USS0050N05S","2006-09-25",48.20,35.60,76.00,,
"USS0050N05S","2006-09-26",50.00,41.00,229.00,,
"USS0050N05S","2006-09-27",42.80,39.20,178.00,,
"USS0050N05S","2006-09-28",39.20,32.00,356.00,,
"USS0050N05S","2006-09-29",44.60,28.40,25.00,,
"USS0050N05S","2006-09-30",45.14,28.40,0.00,,0.00
"USS0050N05S","2006-10-01",38.30,28.76,0.00,,0.00
"USS0050N05S","2006-10-02",42.98,36.68,102.00,,0.00
"USS0050N05S","2006-10-03",43.70,36.86,330.00,,0.00
"USS0050N05S","2006-10-04",46.58,36.68,152.00,,0.00
"USS0050N05S","2006-10-05",42.08,33.26,127.00,,0.00
"USS0050N05S","2006-10-06",38.30,33.26,279.00,,51.00
"USS0050N05S","2006-10-07",39.74,33.26,610.00,,51.00
"USS0050N05S","2006-10-08",44.96,37.22,76.00,,25.00
"USS0050N05S","2006-10-09",57.02,38.12,178.00,,0.00
"USS0050N05S","2006-10-10",50.72,38.12,203.00,,0.00
"USS0050N05S","2006-10-11",43.88,33.26,178.00,,0.00
"USS0050N05S","2006-10-12",41.90,33.08,0.00,,0.00
"USS0050N05S","2006-10-13",46.76,29.66,76.00,,0.00
"USS0050N05S","2006-10-14",45.86,26.24,0.00,,0.00
"USS0050N05S","2006-10-15",43.16,27.50,0.00,,0.00
"USS0050N05S","2006-10-16",38.66,31.46,102.00,,25.00
"USS0050N05S","2006-10-17",42.80,34.88,25.00,,0.00
"USS0050N05S","2006-10-18",38.66,33.80,76.00,,0.00
"USS0050N05S","2006-10-19",38.48,28.76,178.00,,0.00
"USS0050N05S","2006-10-20",41.54,31.28,127.00,,0.00
"USS0050N05S","2006-10-21",39.92,25.34,0.00,,0.00
"USS0050N05S","2006-10-22",38.48,26.78,25.00,,0.00
"USS0050N05S","2006-10-23",37.22,22.10,0.00,,0.00
"USS0050N05S","2006-10-24",31.64,18.32,51.00,,25.00
"USS0050N05S","2006-10-25",38.48,22.82,0.00,,25.00
"USS0050N05S","2006-10-26",32.00,26.06,0.00,,25.00
"USS0050N05S","2006-10-27",29.66,14.00,25.00,,
"USS0050N05S","2006-10-28",26.24,9.32,0.00,,25.00
"USS0050N05S","2006-10-29",28.22,23.18,0.00,,25.00
"USS0050N05S","2006-10-30",31.28,19.76,25.00,,25.00
"USS0050N05S","2006-10-31",30.92,15.08,25.00,,25.00
"USS0050N05S","2006-11-01",30.92,13.46,0.00,,
"USS0050N05S","2006-11-02",28.04,10.22,0.00,,25.00
"USS0050N05S","2006-11-03",25.88,10.22,0.00,,25.00
"USS0050N05S","2006-11-04",22.10,4.28,25.00,,51.00
"USS0050N05S","2006-11-05",19.94,4.64,25.00,,51.00
"USS0050N05S","2006-11-06",21.56,1.58,0.00,,51.00
"USS0050N05S","2006-11-07",17.78,4.82,25.00,,51.00
"USS0050N05S","2006-11-08",15.62,0.32,25.00,,51.00
"USS0050N05S","2006-11-09",19.94,2.48,0.00,,
"USS0050N05S","2006-11-10",31.46,16.16,0.00,,
"USS0050N05S","2006-11-11",27.68,9.14,0.00,,51.00
"USS0050N05S","2006-11-12",20.66,1.22,0.00,,
"USS0050N05S","2006-11-13",6.08,-8.32,0.00,,51.00
"USS0050N05S","2006-11-14",5.54,-5.26,25.00,,76.00
"USS0050N05S","2006-11-15",3.38,-6.88,25.00,,76.00
"USS0050N05S","2006-11-16",11.66,-8.32,0.00,,76.00
"USS0050N05S","2006-11-17",15.44,-0.58,51.00,,152.00
"USS0050N05S","2006-11-18",12.38,-5.44,0.00,,127.00
"USS0050N05S","2006-11-19",20.30,-2.92,0.00,,
"USS0050N05S","2006-11-20",11.66,-4.36,0.00,,76.00
"USS0050N05S","2006-11-21",8.06,-5.80,0.00,,76.00
"USS0050N05S","2006-11-22",13.28,0.68,0.00,,76.00
"USS0050N05S","2006-11-23",11.30,-1.84,25.00,,102.00
"USS0050N05S","2006-11-24",9.86,-10.30,0.00,,76.00
"USS0050N05S","2006-11-25",5.54,-5.62,0.00,,76.00
"USS0050N05S","2006-11-26",6.80,-9.04,0.00,,76.00
"USS0050N05S","2006-11-27",16.16,3.56,25.00,,102.00
"USS0050N05S","2006-11-28",16.16,4.28,0.00,,102.00
"USS0050N05S","2006-11-29",14.90,0.86,0.00,,102.00
"USS0050N05S","2006-11-30",21.92,0.14,102.00,,305.00
"USS0050N05S","2006-12-01",23.54,7.52,25.00,,305.00
"USS0050N05S","2006-12-02",14.54,6.08,0.00,,279.00
"USS0050N05S","2006-12-03",31.46,11.84,51.00,,279.00
"USS0050N05S","2006-12-04",35.24,24.26,0.00,,279.00
"USS0050N05S","2006-12-05",30.38,22.64,0.00,,254.00
"USS0050N05S","2006-12-06",37.04,23.36,0.00,,254.00
"USS0050N05S","2006-12-07",35.42,26.96,51.00,,254.00
"USS0050N05S","2006-12-08",38.66,32.72,0.00,,
"USS0050N05S","2006-12-09",37.76,26.24,0.00,,254.00
"USS0050N05S","2006-12-10",32.18,22.28,0.00,,254.00
"USS0050N05S","2006-12-11",23.90,7.52,25.00,,254.00
"USS0050N05S","2006-12-12",28.94,8.06,0.00,,229.00
"USS0050N05S","2006-12-13",24.80,0.32,0.00,,229.00
"USS0050N05S","2006-12-14",19.22,4.64,0.00,,
"USS0050N05S","2006-12-15",9.50,-4.18,0.00,,229.00
"USS0050N05S","2006-12-16",16.52,-2.38,0.00,,254.00
"USS0050N05S","2006-12-17",27.68,14.18,25.00,,279.00
"USS0050N05S","2006-12-18",24.62,19.94,51.00,,330.00
"USS0050N05S","2006-12-19",28.76,9.14,25.00,,381.00
"USS0050N05S","2006-12-20",26.24,20.84,76.00,,432.00
"USS0050N05S","2006-12-21",23.54,13.46,25.00,,457.00
"USS0050N05S","2006-12-22",17.06,3.74,25.00,,432.00
"USS0050N05S","2006-12-23",21.38,5.00,25.00,,483.00
"USS0050N05S","2006-12-24",21.02,3.38,76.00,,
"USS0050N05S","2006-12-25",13.82,0.68,25.00,,483.00
"USS0050N05S","2006-12-26",8.24,-6.52,0.00,,483.00
"USS0050N05S","2006-12-27",19.40,-7.06,0.00,,457.00
"USS0050N05S","2006-12-28",26.96,15.62,0.00,,483.00
"USS0050N05S","2006-12-29",30.38,17.06,0.00,,483.00
"USS0050N05S","2006-12-30",24.44,19.04,127.00,,635.00
"USS0050N05S","2006-12-31",20.12,-1.66,0.00,,584.00
"USS0050N05S","2007-01-01",16.88,-7.06,0.00,,
"USS0050N05S","2007-01-02",15.26,4.64,0.00,,559.00
"USS0050N05S","2007-01-03",18.14,9.86,76.00,,660.00
"USS0050N05S","2007-01-04",9.86,-3.10,0.00,,660.00
"USS0050N05S","2007-01-05",0.68,-16.42,0.00,,635.00
"USS0050N05S","2007-01-06",1.40,-7.24,0.00,,635.00
"USS0050N05S","2007-01-07",0.14,-10.12,0.00,,635.00
"USS0050N05S","2007-01-08",-7.78,-24.88,0.00,,635.00
"USS0050N05S","2007-01-09",-3.82,-18.58,0.00,,635.00
"USS0050N05S","2007-01-10",9.68,-15.52,102.00,,737.00
"USS0050N05S","2007-01-11",22.82,9.68,254.00,,940.00
"USS0050N05S","2007-01-12",28.22,22.46,127.00,,991.00
"USS0050N05S","2007-01-13",30.92,10.94,152.00,,1092.00
"USS0050N05S","2007-01-14",24.08,8.96,0.00,,1016.00
"USS0050N05S","2007-01-15",18.68,5.36,0.00,,991.00
"USS0050N05S","2007-01-16",13.46,-9.22,25.00,,
"USS0050N05S","2007-01-17",19.40,9.86,25.00,,
"USS0050N05S","2007-01-18",28.40,11.66,0.00,,
"USS0050N05S","2007-01-19",27.32,23.00,102.00,,1041.00
"USS0050N05S","2007-01-20",29.48,20.48,0.00,,1016.00
"USS0050N05S","2007-01-21",23.72,8.60,25.00,,1016.00
"USS0050N05S","2007-01-22",21.56,3.38,0.00,,1041.00
"USS0050N05S","2007-01-23",21.56,6.62,25.00,,1016.00
"USS0050N05S","2007-01-24",14.36,2.48,0.00,,991.00
"USS0050N05S","2007-01-25",19.76,-9.04,76.00,,1067.00
"USS0050N05S","2007-01-26",34.16,19.76,127.00,,1194.00
"USS0050N05S","2007-01-27",34.34,22.28,51.00,,1168.00
"USS0050N05S","2007-01-28",35.78,25.88,25.00,,1143.00
"USS0050N05S","2007-01-29",39.20,25.52,0.00,,
"USS0050N05S","2007-01-30",39.74,26.96,76.00,,1016.00
"USS0050N05S","2007-01-31",37.22,23.72,25.00,,965.00
"USS0050N05S","2007-02-01",38.48,17.78,0.00,,940.00
"USS0050N05S","2007-02-02",46.76,28.76,25.00,,
"USS0050N05S","2007-02-03",34.16,15.26,0.00,,914.00
"USS0050N05S","2007-02-04",34.88,14.18,0.00,,
"USS0050N05S","2007-02-05",26.96,6.44,0.00,,889.00
"USS0050N05S","2007-02-06",24.98,16.16,0.00,,889.00
"USS0050N05S","2007-02-07",21.56,12.38,0.00,,889.00
"USS0050N05S","2007-02-08",24.44,9.50,25.00,,889.00
"USS0050N05S","2007-02-09",24.98,12.56,0.00,,889.00
"USS0050N05S","2007-02-10",29.12,8.42,0.00,,864.00
"USS0050N05S","2007-02-11",26.78,11.66,25.00,,864.00
"USS0050N05S","2007-02-12",19.58,1.40,0.00,,864.00
"USS0050N05S","2007-02-13",26.78,2.12,0.00,,864.00
"USS0050N05S","2007-02-14",28.04,15.44,0.00,,838.00
"USS0050N05S","2007-02-15",31.64,17.06,0.00,,838.00
"USS0050N05S","2007-02-16",26.96,13.28,0.00,,864.00
"USS0050N05S","2007-02-17",24.08,7.34,25.00,,838.00
"USS0050N05S","2007-02-18",18.14,-7.42,25.00,,838.00
"USS0050N05S","2007-02-19",17.42,-0.04,0.00,,838.00
"USS0050N05S","2007-02-20",10.04,-9.40,25.00,,
"USS0050N05S","2007-02-21",8.78,-12.82,25.00,,838.00
"USS0050N05S","2007-02-22",7.70,-12.28,0.00,,838.00
"USS0050N05S","2007-02-23",3.02,-14.98,0.00,,
"USS0050N05S","2007-02-24",8.78,-15.52,0.00,,838.00
"USS0050N05S","2007-02-25",12.38,-9.94,0.00,,838.00
"USS0050N05S","2007-02-26",17.24,-9.76,0.00,,838.00
"USS0050N05S","2007-02-27",9.14,-8.68,0.00,,838.00
"USS0050N05S","2007-02-28",11.48,-12.82,0.00,,838.00
"USS0050N05S","2007-03-01",9.86,-15.16,0.00,,
"USS0050N05S","2007-03-02",17.96,-7.78,0.00,,
"USS0050N05S","2007-03-03",19.22,-10.66,0.00,,838.00
"USS0050N05S","2007-03-04",18.32,-10.12,0.00,,838.00
"USS0050N05S","2007-03-05",6.62,-16.96,0.00,,838.00
"USS0050N05S","2007-03-06",7.70,-23.98,0.00,,
"USS0050N05S","2007-03-07",9.68,0.68,51.00,,889.00
"USS0050N05S","2007-03-08",23.90,-1.84,0.00,,889.00
"USS0050N05S","2007-03-09",24.44,-0.76,0.00,,889.00
"USS0050N05S","2007-03-10",19.94,0.68,0.00,,
"USS0050N05S","2007-03-11",22.46,-6.52,0.00,,
"USS0050N05S","2007-03-12",18.14,-21.64,0.00,,
"USS0050N05S","2007-03-13",10.76,-14.08,0.00,,
"USS0050N05S","2007-03-14",6.08,-18.58,0.00,,
"USS0050N05S","2007-03-15",16.16,-18.94,0.00,,
"USS0050N05S","2007-03-16",23.72,-4.54,0.00,,
"USS0050N05S","2007-03-17",24.08,3.02,0.00,,
"USS0050N05S","2007-03-18",22.82,0.50,0.00,,864.00
"USS0050N05S","2007-03-19",34.34,-4.54,0.00,,864.00
"USS0050N05S","2007-03-20",22.82,-3.82,0.00,,
"USS0050N05S","2007-03-21",27.86,14.72,51.00,,
"USS0050N05S","2007-03-22",26.42,5.36,25.00,,
"USS0050N05S","2007-03-23",25.52,2.30,0.00,,
"USS0050N05S","2007-03-24",23.54,2.12,0.00,,
"USS0050N05S","2007-03-25",18.50,-2.74,0.00,,
"USS0050N05S","2007-03-26",23.72,-2.56,0.00,,
"USS0050N05S","2007-03-27",29.66,-2.02,0.00,,
"USS0050N05S","2007-03-28",32.36,7.34,0.00,,
"USS0050N05S","2007-03-29",34.70,-3.64,0.00,,
"USS0050N05S","2007-03-30",36.86,12.74,0.00,,889.00
"USS0050N05S","2007-03-31",40.28,13.28,0.00,,889.00
"USS0050N05S","2007-04-01",40.82,10.94,0.00,,
"USS0050N05S","2007-04-02",38.66,18.14,0.00,,889.00
"USS0050N05S","2007-04-03",34.34,17.42,0.00,,
"USS0050N05S","2007-04-04",38.48,21.92,0.00,,
"USS0050N05S","2007-04-05",45.32,19.76,0.00,,889.00
"USS0050N05S","2007-04-06",49.82,28.58,0.00,,838.00
"USS0050N05S","2007-04-07",48.02,33.44,0.00,,
"USS0050N05S","2007-04-08",53.42,32.54,0.00,,
"USS0050N05S","2007-04-09",49.46,34.34,0.00,,711.00
"USS0050N05S","2007-04-10",46.22,28.94,0.00,,660.00
"USS0050N05S","2007-04-11",44.24,28.58,25.00,,660.00
"USS0050N05S","2007-04-12",42.80,25.88,0.00,,660.00
"USS0050N05S","2007-04-13",43.34,25.34,0.00,,635.00
"USS0050N05S","2007-04-14",43.52,26.60,0.00,,635.00
"USS0050N05S","2007-04-15",45.32,30.92,0.00,,610.00
"USS0050N05S","2007-04-16",45.68,28.76,0.00,,610.00
"USS0050N05S","2007-04-17",44.96,31.28,0.00,,559.00
"USS0050N05S","2007-04-18",49.46,35.06,0.00,,533.00
"USS0050N05S","2007-04-19",45.32,35.06,0.00,,508.00
"USS0050N05S","2007-04-20",50.00,35.24,0.00,,483.00
"USS0050N05S","2007-04-21",52.16,29.48,0.00,,457.00
"USS0050N05S","2007-04-22",52.34,24.80,0.00,,432.00
"USS0050N05S","2007-04-23",54.32,30.20,0.00,,406.00
"USS0050N05S","2007-04-24",51.08,34.88,51.00,,381.00
"USS0050N05S","2007-04-25",50.18,33.08,76.00,,356.00
"USS0050N05S","2007-04-26",58.28,30.74,0.00,,305.00
"USS0050N05S","2007-04-27",48.74,32.36,0.00,,279.00
"USS0050N05S","2007-04-28",48.38,35.60,0.00,,254.00
"USS0050N05S","2007-04-29",49.46,34.16,0.00,,229.00
"USS0050N05S","2007-04-30",51.26,30.20,0.00,,203.00
"USS0050N05S","2007-05-01",54.14,32.18,0.00,,178.00
"USS0050N05S","2007-05-02",54.86,30.56,0.00,,152.00
"USS0050N05S","2007-05-03",56.84,30.02,0.00,,127.00
"USS0050N05S","2007-05-04",56.48,32.72,0.00,,76.00
"USS0050N05S","2007-05-05",49.64,36.86,0.00,,51.00
"USS0050N05S","2007-05-06",49.82,31.28,0.00,,0.00
"USS0050N05S","2007-05-07",50.36,35.42,0.00,,0.00
"USS0050N05S","2007-05-08",51.98,33.44,0.00,,0.00
"USS0050N05S","2007-05-09",52.34,33.62,25.00,,0.00
"USS0050N05S","2007-05-10",55.04,28.22,0.00,,0.00
"USS0050N05S","2007-05-11",55.22,30.38,0.00,,0.00
"USS0050N05S","2007-05-12",49.28,36.14,25.00,,0.00
"USS0050N05S","2007-05-13",45.32,34.70,25.00,,0.00
"USS0050N05S","2007-05-14",55.04,39.02,0.00,,0.00
"USS0050N05S","2007-05-15",58.82,38.48,0.00,,0.00
"USS0050N05S","2007-05-16",67.46,35.96,0.00,,0.00
"USS0050N05S","2007-05-17",50.72,42.08,0.00,,0.00
"USS0050N05S","2007-05-18",54.68,40.28,0.00,,0.00
"USS0050N05S","2007-05-19",63.86,31.46,0.00,,0.00
"USS0050N05S","2007-05-20",65.48,36.68,0.00,,0.00
"USS0050N05S","2007-05-21",63.68,37.40,0.00,,0.00
"USS0050N05S","2007-05-22",64.04,34.16,0.00,,0.00
"USS0050N05S","2007-05-23",57.92,42.98,51.00,,0.00
"USS0050N05S","2007-05-24",59.54,42.44,0.00,,0.00
"USS0050N05S","2007-05-25",70.88,38.84,0.00,,0.00
"USS0050N05S","2007-05-26",58.28,41.72,0.00,,0.00
"USS0050N05S","2007-05-27",52.34,42.26,25.00,,0.00
"USS0050N05S","2007-05-28",54.86,40.28,25.00,,0.00
"USS0050N05S","2007-05-29",56.66,37.76,0.00,,0.00
"USS0050N05S","2007-05-30",62.78,42.80,0.00,,0.00
"USS0050N05S","2007-05-31",57.02,41.90,0.00,,0.00
"USS0050N05S","2007-06-01",61.16,40.10,0.00,,0.00
"USS0050N05S","2007-06-02",68.36,38.30,0.00,,0.00
"USS0050N05S","2007-06-03",63.68,42.62,0.00,,0.00
"USS0050N05S","2007-06-04",66.92,41.18,51.00,,0.00
"USS0050N05S","2007-06-05",68.36,45.50,0.00,,0.00
"USS0050N05S","2007-06-06",68.18,38.48,0.00,,0.00
"USS0050N05S","2007-06-07",55.22,35.96,51.00,,0.00
"USS0050N05S","2007-06-08",59.36,34.88,0.00,,0.00
"USS0050N05S","2007-06-09",71.96,34.88,0.00,,0.00
"USS0050N05S","2007-06-10",76.64,37.22,0.00,,0.00
"USS0050N05S","2007-06-11",62.60,47.12,0.00,,0.00
"USS0050N05S","2007-06-12",55.94,43.70,0.00,,0.00
"USS0050N05S","2007-06-13",60.08,42.80,0.00,,0.00
"USS0050N05S","2007-06-14",69.26,37.94,0.00,,0.00
"USS0050N05S","2007-06-15",73.40,40.10,0.00,,0.00
"USS0050N05S","2007-06-16",75.74,42.62,0.00,,0.00
"USS0050N05S","2007-06-17",70.88,43.88,0.00,,0.00
"USS0050N05S","2007-06-18",70.16,47.66,0.00,,0.00
"USS0050N05S","2007-06-19",80.96,40.82,0.00,,0.00
"USS0050N05S","2007-06-20",82.22,48.02,0.00,,0.00
"USS0050N05S","2007-06-21",79.70,47.66,25.00,,0.00
"USS0050N05S","2007-06-22",74.84,46.40,25.00,,0.00
"USS0050N05S","2007-06-23",54.14,45.68,102.00,,0.00
"USS0050N05S","2007-06-24",57.20,45.32,51.00,,0.00
"USS0050N05S","2007-06-25",56.84,43.34,51.00,,0.00
"USS0050N05S","2007-06-26",65.48,39.92,0.00,,0.00
"USS0050N05S","2007-06-27",71.24,39.74,0.00,,0.00
"USS0050N05S","2007-06-28",73.94,42.44,0.00,,0.00
"USS0050N05S","2007-06-29",78.26,39.02,0.00,,0.00
"USS0050N05S","2007-06-30",74.66,46.94,51.00,,0.00
"USS0050N05S","2007-07-01",51.08,44.24,127.00,,0.00
"USS0050N05S","2007-07-02",60.62,41.00,0.00,,0.00
"USS0050N05S","2007-07-03",63.14,50.18,25.00,,0.00
"USS0050N05S","2007-07-04",55.22,50.36,102.00,,0.00
"USS0050N05S","2007-07-05",57.20,48.74,0.00,,0.00
"USS0050N05S","2007-07-06",59.72,48.02,0.00,,0.00
"USS0050N05S","2007-07-07",56.12,48.38,0.00,,0.00
"USS0050N05S","2007-07-08",64.40,47.48,0.00,,0.00
"USS0050N05S","2007-07-09",64.58,41.00,25.00,,0.00
"USS0050N05S","2007-07-10",66.92,47.48,0.00,,0.00
"USS0050N05S","2007-07-11",62.06,42.08,25.00,,0.00
"USS0050N05S","2007-07-12",70.34,39.02,0.00,,0.00
"USS0050N05S","2007-07-13",60.08,43.34,25.00,,0.00
"USS0050N05S","2007-07-14",56.66,41.36,25.00,,0.00
"USS0050N05S","2007-07-15",61.88,39.02,0.00,,0.00
"USS0050N05S","2007-07-16",75.20,40.46,0.00,,0.00
"USS0050N05S","2007-07-17",73.40,42.80,0.00,,0.00
"USS0050N05S","2007-07-18",70.70,44.96,0.00,,0.00
"USS0050N05S","2007-07-19",71.60,48.20,0.00,,0.00
"USS0050N05S","2007-07-20",73.22,44.24,0.00,,0.00
"USS0050N05S","2007-07-21",75.74,44.24,0.00,,0.00
"USS0050N05S","2007-07-22",58.82,49.82,102.00,,0.00
"USS0050N05S","2007-07-23",60.98,48.38,152.00,,0.00
"USS0050N05S","2007-07-24",65.48,45.50,0.00,,0.00
"USS0050N05S","2007-07-25",70.34,49.28,0.00,,0.00
"USS0050N05S","2007-07-26",75.38,48.74,0.00,,0.00
"USS0050N05S","2007-07-27",70.70,52.88,0.00,,0.00
"USS0050N05S","2007-07-28",71.78,51.26,0.00,,0.00
"USS0050N05S","2007-07-29",75.38,51.44,0.00,,0.00
"USS0050N05S","2007-07-30",58.10,51.62,229.00,,0.00
"USS0050N05S","2007-07-31",56.66,49.64,25.00,,0.00
"USS0050N05S","2007-08-01",71.60,49.28,25.00,,0.00
"USS0050N05S","2007-08-02",55.76,47.66,25.00,,0.00
"USS0050N05S","2007-08-03",59.00,46.58,25.00,,0.00
"USS0050N05S","2007-08-04",55.22,48.02,152.00,,0.00
"USS0050N05S","2007-08-05",55.58,46.94,127.00,,0.00
"USS0050N05S","2007-08-06",64.22,45.32,0.00,,0.00
"USS0050N05S","2007-08-07",72.50,41.18,25.00,,0.00
"USS0050N05S","2007-08-08",70.88,42.98,0.00,,0.00
"USS0050N05S","2007-08-09",71.96,44.78,0.00,,0.00
"USS0050N05S","2007-08-10",74.84,39.74,0.00,,0.00
"USS0050N05S","2007-08-11",74.66,41.18,0.00,,0.00
"USS0050N05S","2007-08-12",64.94,48.20,25.00,,0.00
"USS0050N05S","2007-08-13",73.58,44.24,0.00,,0.00
"USS0050N05S","2007-08-14",56.66,49.64,305.00,,0.00
"USS0050N05S","2007-08-15",62.42,44.24,76.00,,0.00
"USS0050N05S","2007-08-16",71.96,41.54,0.00,,0.00
"USS0050N05S","2007-08-17",77.18,44.06,0.00,,0.00
"USS0050N05S","2007-08-18",66.92,47.12,0.00,,0.00
"USS0050N05S","2007-08-19",64.22,46.94,0.00,,0.00
"USS0050N05S","2007-08-20",60.44,46.76,0.00,,0.00
"USS0050N05S","2007-08-21",59.18,47.48,0.00,,0.00
"USS0050N05S","2007-08-22",56.48,42.44,76.00,,0.00
"USS0050N05S","2007-08-23",65.66,40.10,25.00,,0.00
"USS0050N05S","2007-08-24",61.88,44.24,0.00,,0.00
"USS0050N05S","2007-08-25",63.86,43.34,76.00,,0.00
"USS0050N05S","2007-08-26",73.40,38.84,25.00,,0.00
"USS0050N05S","2007-08-27",63.68,45.86,203.00,,0.00
"USS0050N05S","2007-08-28",69.62,39.38,25.00,,0.00
"USS0050N05S","2007-08-29",71.06,39.92,0.00,,0.00
"USS0050N05S","2007-08-30",68.54,40.82,152.00,,0.00
"USS0050N05S","2007-08-31",63.86,42.98,25.00,,0.00
"USS0050N05S","2007-09-01",58.64,46.58,102.00,,0.00
"USS0050N05S","2007-09-02",55.58,39.38,0.00,,0.00
"USS0050N05S","2007-09-03",59.18,37.22,25.00,,0.00
"USS0050N05S","2007-09-04",63.32,34.52,0.00,,0.00
"USS0050N05S","2007-09-05",59.54,41.54,152.00,,0.00
"USS0050N05S","2007-09-06",55.22,42.80,102.00,,0.00
"USS0050N05S","2007-09-07",53.78,44.96,178.00,,0.00
"USS0050N05S","2007-09-08",47.84,45.32,432.00,,0.00
"USS0050N05S","2007-09-09",53.24,45.14,330.00,,0.00
"USS0050N05S","2007-09-10",61.16,40.28,25.00,,0.00
"USS0050N05S","2007-09-11",59.18,39.02,51.00,,0.00
"USS0050N05S","2007-09-12",49.46,43.88,279.00,,0.00
"USS0050N05S","2007-09-13",48.92,41.36,178.00,,0.00
"USS0050N05S","2007-09-14",54.68,33.98,51.00,,0.00
"USS0050N05S","2007-09-15",54.68,31.82,25.00,,0.00
"USS0050N05S","2007-09-16",55.94,37.40,0.00,,0.00
"USS0050N05S","2007-09-17",54.32,37.94,0.00,,0.00
"USS0050N05S","2007-09-18",44.42,38.84,254.00,,0.00
"USS0050N05S","2007-09-19",45.86,38.30,102.00,,0.00
"USS0050N05S","2007-09-20",46.58,33.80,102.00,,0.00
"USS0050N05S","2007-09-21",53.24,31.28,25.00,,0.00
"USS0050N05S","2007-09-22",53.42,37.40,0.00,,0.00
"USS0050N05S","2007-09-23",51.26,35.06,0.00,,0.00
"USS0050N05S","2007-09-24",46.76,38.66,0.00,,0.00
"USS0050N05S","2007-09-25",45.86,38.48,102.00,,0.00
"USS0050N05S","2007-09-26",49.64,34.88,102.00,,0.00
"USS0050N05S","2007-09-27",51.98,32.18,25.00,,0.00
"USS0050N05S","2007-09-28",46.76,31.64,25.00,,0.00
"USS0050N05S","2007-09-29",52.34,,305.00,,0.00
"USS0050N05S","2007-09-30",41.18,34.70,0.00,,0.00
"USS0050N05S","2007-10-01",46.22,31.28,0.00,,0.00
"USS0050N05S","2007-10-02",49.64,30.20,0.00,,0.00
"USS0050N05S","2007-10-03",47.48,31.64,25.00,,0.00
"USS0050N05S","2007-10-04",41.18,27.14,25.00,,0.00
"USS0050N05S","2007-10-05",41.72,31.46,25.00,,0.00
"USS0050N05S","2007-10-06",43.16,31.64,0.00,,0.00
"USS0050N05S","2007-10-07",38.84,22.28,0.00,,0.00
"USS0050N05S","2007-10-08",37.76,16.52,0.00,,0.00
"USS0050N05S","2007-10-09",37.04,18.32,0.00,,0.00
"USS0050N05S","2007-10-10",36.86,14.90,0.00,,0.00
"USS0050N05S","2007-10-11",32.18,12.38,0.00,,0.00
"USS0050N05S","2007-10-12",39.74,22.28,25.00,,0.00
"USS0050N05S","2007-10-13",43.16,28.40,0.00,,0.00